This demonstration page uses our WeatherBlox Daily Observations layout. Learn more.

Hourly Observations for July 18, 2017

Temp ( °F °C ) Dew Point ( °F °C ) Humidity (%) Winds ( mph kmh ) Pressure ( in mb ) Visibility ( mi km ) Precip ( " mm )
12:54 am 00:54 Clear 78 25.6 69 20.6 74 74 SSW 6 9 29.92 1013 10 16.0934 0 0
1:54 am 01:54 Cloudy 78 25.6 69 20.6 74 74 Calm 29.94 1014 10 16.0934 0 0
2:54 am 02:54 Mostly Cloudy with Light Rain 75 23.9 71 21.7 88 88 W 5 7 29.94 1014 7 11.26538 0.02 0.508
3:54 am 03:54 Mostly Clear 74 23.3 72 22.2 94 94 S 6 9 29.93 1014 10 16.0934 0.001 0.001
5:54 am 05:54 Mostly Cloudy with Light Rain 73 22.8 69 20.6 87 87 W 3 6 29.96 1014 10 16.0934 0.001 0.001
6:54 am 06:54 Mostly Cloudy with Light Rain 73 22.8 69 20.6 87 87 SW 8 13 29.97 1015 6 9.65604 0.02 0.508
7:54 am 07:54 Mostly Cloudy with Light Rain 72 22.2 70 21.1 94 94 SSW 18 30 29.93 1014 6 9.65604 0.1 2.54
8:32 am 08:32 Mostly Cloudy with Light Rain 73 22.8 70 21.1 90 90 N 22 35 29.97 1015 9 14.48406 0.001 0.001
8:41 am 08:41 Mostly Cloudy 74 23.3 70 21.1 88 88 N 7 11 29.97 1015 10 16.0934 0.001 0.001
8:54 am 08:54 Mostly Sunny 75 23.9 70 21.1 84 84 NW 5 7 29.97 1015 10 16.0934 0.001 0.001
9:54 am 09:54 Cloudy 76 24.4 71 21.7 85 85 SSW 7 11 29.98 1015 10 16.0934 0 0
10:54 am 10:54 Cloudy 77 25 70 21.1 79 79 SSE 7 11 29.96 1015 10 16.0934 0 0
11:54 am 11:54 Partly Cloudy 82 27.8 73 22.8 74 74 S 9 15 29.96 1014 10 16.0934 0 0
12:54 pm 12:54 Sunny 86 30 73 22.8 65 65 S 16 26 29.93 1014 10 16.0934 0 0
1:54 pm 13:54 Sunny 88 31.1 75 23.9 66 66 S 9 15 29.94 1014 10 16.0934 0 0
2:54 pm 14:54 Mostly Cloudy 88 31.1 74 23.3 63 63 S 9 15 29.95 1014 10 16.0934 0 0
3:54 pm 15:54 Mostly Cloudy 88 31.1 75 23.9 66 66 S 7 11 29.95 1014 10 16.0934 0 0
4:54 pm 16:54 Partly Cloudy 90 32.2 76 24.4 63 63 SSE 10 17 29.94 1014 10 16.0934 0 0
5:54 pm 17:54 Mostly Sunny 90 32.2 75 23.9 62 62 SE 9 15 29.93 1014 10 16.0934 0 0
6:54 pm 18:54 Sunny 90 32.2 74 23.3 59 59 ESE 8 13 29.93 1014 10 16.0934 0 0
7:54 pm 19:54 Sunny 89 31.7 72 22.2 57 57 ESE 6 9 29.93 1014 10 16.0934 0 0
8:54 pm 20:54 Sunny 85 29.4 77 25 77 77 ESE 12 19 29.94 1014 10 16.0934 0 0
9:54 pm 21:54 Clear 83 28.3 77 25 82 82 ESE 8 13 29.96 1015 10 16.0934 0 0
10:54 pm 22:54 Clear 83 28.3 77 25 82 82 ESE 7 11 29.98 1015 10 16.0934 0 0
11:54 pm 23:54 Clear 82 27.8 75 23.9 79 79 ESE 6 9 29.99 1016 10 16.0934 0 0

Powered by AerisWeather